{"data":{"norad_id":59704,"epoch":"2026-05-24T22:56:03.530688Z","epoch_age_seconds":75536,"freshness":"FRESH","line1":"1 59704U 24086Y   26144.95559642  .00001351  00000+0  58655-4 0  9999","line2":"2 59704  43.0103 349.3890 0002859 262.3414  97.7113 15.27575984115772","mean_motion":15.27575984,"eccentricity":0.0002859,"inclination_deg":43.0103,"raan_deg":349.389,"arg_perigee_deg":262.3414,"mean_anomaly_deg":97.7113,"bstar":5.8655e-5,"rev_number":11577,"period_min":94.266996541103,"perigee_km":481.09950487184,"apogee_km":485.02273795766,"semimajor_km":6861.1981214147,"source":"CELESTRAK","updated_at":"2026-05-25T13:38:19.044915Z"}}